[[{"header":{"parameterUnit":"m.s-1","parameterCategory":1,"la1":30.2991,"la2":30.254,"lo1":-89.0895,"lo2":-89.0444,"dy":0.0017,"dx":0.0017,"nx":28,"ny":28,"refTime":"2025-03-25T21:00:00:Z","depth":0,"parameterNumber":2,"parameterNumberName":"U-component_of_WINDS"},"data":[0,0,0,0,0,0,0,0,0,0,0,0,0,0,0,0,0,0,0,0,0,0,0,0,0,0,0,0,0,0,0,0,0,0,0,0,0,0,0,0,0,0,0,0,0,0,0,0,0,0,0,0,0,0,0,0,0,0,-1.742,-1.742,0,-1.7448,-1.7448,-1.7449,-1.7398,-1.7396,-1.7395,-1.7393,-1.7423,-1.7426,-1.7428,0,0,0,0,0,0,0,0,0,0,0,0,0,-1.7325,-1.7327,-1.742,-1.742,-1.7421,-1.7448,-1.7448,-1.7449,-1.7398,-1.7396,-1.7394,-1.7392,-1.7422,-1.7425,-1.7428,0,0,0,0,0,0,0,0,0,0,0,0,0,-1.7361,-1.7328,-1.742,-1.7399,-1.7397,-1.7448,-1.7448,-1.7449,-1.7399,-1.7396,-1.7394,-1.7391,-1.7421,-1.7425,-1.7428,-1.7502,0,0,-1.7439,-1.7441,0,0,0,0,0,0,0,0,-1.7359,-1.7365,-1.7402,-1.74,-1.7399,-1.7417,-1.7426,-1.7467,-1.7399,-1.7398,-1.7393,-1.739,-1.7423,-1.7427,-1.7437,-1.7503,-1.7504,-1.744,-1.7442,-1.7444,-1.7445,0,0,0,0,0,0,0,-1.7357,-1.7363,-1.7431,-1.7402,-1.74,-1.7389,-1.7391,-1.7434,-1.7425,-1.7398,-1.7394,-1.7398,-1.7422,-1.7434,-1.7438,-1.7505,-1.744,-1.7443,-1.7445,-1.7446,-1.7634,-1.7636,0,0,0,0,0,0,-1.7357,-1.7362,-1.743,-1.7432,-1.7372,-1.7393,-1.7395,-1.7414,-1.7424,-1.7423,-1.7401,-1.7396,-1.7429,-1.7434,-1.7439,-1.7525,-1.7443,-1.7447,-1.7449,-1.7631,-1.7634,-1.7637,0,0,0,0,0,0,-1.7355,-1.7363,-1.7429,-1.7396,-1.7403,-1.7397,-1.7418,-1.7416,-1.7427,-1.7426,-1.7424,-1.7414,-1.7427,-1.7434,-1.7487,-1.7526,-1.7448,-1.7452,-1.7627,-1.7632,-1.7636,-1.77,0,0,0,0,0,0,-1.7353,-1.7363,-1.739,-1.7397,-1.7405,-1.7476,-1.7421,-1.7418,-1.7434,-1.7428,-1.7438,-1.7438,-1.7426,-1.7482,-1.749,-1.7529,-1.7455,-1.7624,-1.7629,-1.7634,-1.7694,-1.7706,-1.7715,0,0,0,0,0,-1.7349,-1.7407,-1.7392,-1.74,-1.7439,-1.7478,-1.7483,-1.7468,-1.7437,-1.7465,-1.7464,-1.7437,-1.752,-1.7487,-1.7497,-1.7538,-1.7621,-1.7628,-1.7634,-1.7689,-1.7703,-1.7715,0,0,0,0,0,0,-1.7405,-1.7408,-1.739,-1.7452,-1.7465,-1.747,-1.7504,-1.7483,-1.7506,-1.7499,-1.748,-1.7483,-1.754,-1.7544,-1.7507,-1.761,-1.7566,-1.7574,-1.7605,-1.7618,-1.7628,-1.7626,-1.7458,0,0,0,0,0,-1.7425,-1.7456,-1.7456,-1.7511,-1.7518,-1.751,-1.7527,-1.7514,-1.7527,-1.7533,-1.7536,-1.755,-1.7579,-1.7599,-1.7626,-1.7695,-1.7697,-1.7728,-1.7738,-1.7747,-1.7755,-1.7792,-1.7806,-1.7658,-1.7658,-1.7658,0,0,-1.7465,-1.747,-1.7491,-1.7522,-1.7531,-1.7565,-1.7515,-1.7552,-1.7577,-1.7538,-1.7588,-1.7592,-1.7607,-1.7668,-1.7695,-1.7673,-1.7796,-1.7755,-1.7762,-1.7765,-1.78,-1.7814,-1.7827,-1.7662,-1.7662,-1.7661,0,0,-1.7556,-1.7563,-1.7609,-1.7619,-1.7633,-1.7628,-1.7639,-1.7647,-1.7647,-1.7697,-1.7669,-1.7699,-1.775,-1.7762,-1.7775,-1.7872,-1.7849,-1.7882,-1.7937,-1.7974,-1.7986,-1.7996,-1.8031,-1.8044,-1.7889,-1.7889,-1.789,0,-1.7604,-1.7653,-1.7636,-1.7675,-1.769,-1.7657,-1.7704,-1.7715,-1.7737,-1.7749,-1.7724,-1.7788,-1.7795,-1.7859,-1.7883,-1.7895,-1.7908,-1.788,-1.7985,-1.7996,-1.8005,-1.8038,-1.8051,-1.7893,-1.7893,-1.7892,-1.7892,0,-1.7712,-1.7747,-1.7782,-1.7805,-1.7824,-1.7867,-1.7857,-1.7879,-1.7865,-1.7863,-1.7915,-1.7923,-1.7952,-1.7966,-1.7953,-1.8029,-1.8015,-1.7988,-1.7944,-1.8023,-1.8054,-1.8066,-1.7899,-1.7897,-1.7896,-1.7895,0,0,-1.7837,-1.785,-1.7864,-1.7874,-1.7888,-1.7914,-1.7957,-1.7985,-1.8004,-1.8021,-1.8057,-1.8101,-1.8077,-1.8092,-1.808,-1.8112,-1.819,-1.8082,-1.8082,-1.8101,-1.8275,-1.8294,-1.8309,-1.8175,-1.8177,-1.8179,-1.8273,0,-1.7927,-1.7999,-1.7986,-1.8057,-1.8089,-1.8059,-1.8096,-1.8109,-1.8109,-1.8136,-1.8136,-1.8168,-1.8133,-1.8142,-1.8173,-1.8174,-1.8224,-1.8167,-1.8208,-1.821,-1.8204,-1.8325,-1.8345,-1.8434,-1.8285,-1.8287,-1.8289,0,-1.8041,-1.8062,-1.8136,-1.8146,-1.8159,-1.8193,-1.8218,-1.8244,-1.826,-1.8257,-1.8274,-1.8257,-1.83,-1.8256,-1.8316,-1.8278,-1.8294,-1.8298,-1.8301,-1.8303,-1.8253,-1.833,-1.8461,-1.8474,-1.8307,-1.8306,-1.8305,0,-1.8124,-1.8172,-1.8223,-1.8232,-1.8245,-1.827,-1.8276,-1.8289,-1.8307,-1.8329,-1.834,-1.8368,-1.8383,-1.8405,-1.8396,-1.8364,-1.8458,-1.8413,-1.8457,-1.8457,-1.8477,-1.8476,-1.8612,-1.8489,-1.8489,-1.8489,-1.8489,0,-1.8226,-1.8272,-1.826,-1.8291,-1.8343,-1.8328,-1.838,-1.8383,-1.8395,-1.8427,-1.8403,-1.8434,-1.842,-1.845,-1.8444,-1.8495,-1.8502,-1.8501,-1.8499,-1.8503,-1.8503,-1.8513,-1.8506,-1.8492,-1.8492,-1.8491,-1.849,0,-1.8327,-1.8321,-1.8374,-1.8382,-1.8386,-1.8423,-1.8431,-1.846,-1.8459,-1.85,-1.8508,-1.8506,-1.854,-1.8534,-1.8572,-1.8567,-1.8631,-1.8622,-1.8626,-1.8623,-1.8668,-1.8664,-1.8815,-1.8834,-1.8699,-1.8701,-1.8702,0,-1.8391,-1.8426,-1.8439,-1.8458,-1.8467,-1.8499,-1.8517,-1.8504,-1.8524,-1.8545,-1.8573,-1.8605,-1.863,-1.8686,-1.8688,-1.8718,-1.8708,-1.8759,-1.8712,-1.8716,-1.8709,-1.8706,-1.871,-1.8768,-1.877,-1.8771,-1.8772,0,-1.8507,-1.8502,-1.8529,-1.8556,-1.8578,-1.8598,-1.8616,-1.8634,-1.8623,-1.8647,-1.8682,-1.8701,-1.8741,-1.8773,-1.8801,-1.8808,-1.8789,-1.8787,-1.8799,-1.8803,-1.8803,-1.8803,-1.865,-1.8783,-1.8782,-1.8781,-1.878,-1.878,-1.8591,-1.8621,-1.8635,-1.8666,-1.8678,-1.8696,-1.8724,-1.8727,-1.8755,-1.8786,-1.8777,-1.8817,-1.8833,-1.8867,-1.8879,-1.891,-1.8891,-1.8908,-1.8912,-1.8917,-1.8922,-1.8799,-1.8915,-1.8915,-1.8915,-1.8914,-1.8914,0,-1.8704,-1.8712,-1.8741,-1.8767,-1.8792,-1.8772,-1.8791,-1.8813,-1.8848,-1.8865,-1.889,-1.8931,-1.8962,-1.8968,-1.8998,-1.9023,-1.9014,-1.9031,-1.9029,-1.9031,-1.8937,-1.8924,-1.9037,-1.9037,-1.9037,-1.9037,-1.9037,-1.9037,-1.8766,-1.8816,-1.8814,-1.887,-1.8878,-1.8916,-1.8929,-1.8946,-1.8959,-1.9005,-1.9031,-1.9034,-1.9047,-1.9078,-1.9107,-1.9108,-1.912,-1.914,-1.9137,-1.905,-1.9037,-1.9025,-1.9013,-1.9143,-1.9143,-1.9228,-1.9229,-1.9229]},{"header":{"parameterUnit":"m.s-1","parameterCategory":1,"la1":30.2991,"la2":30.254,"lo1":-89.0895,"lo2":-89.0444,"dy":0.0017,"dx":0.0017,"nx":28,"ny":28,"refTime":"2025-03-25T21:00:00:Z","depth":0,"parameterNumber":3,"parameterNumberName":"V-component_of_WINDS"},"data":[0,0,0,0,0,0,0,0,0,0,0,0,0,0,0,0,0,0,0,0,0,0,0,0,0,0,0,0,0,0,0,0,0,0,0,0,0,0,0,0,0,0,0,0,0,0,0,0,0,0,0,0,0,0,0,0,0,0,0.3156,0.3156,0,0.3181,0.3181,0.3182,0.3201,0.3202,0.3202,0.3202,0.3226,0.3227,0.3227,0,0,0,0,0,0,0,0,0,0,0,0,0,0.3126,0.3126,0.3156,0.3156,0.3157,0.3181,0.3181,0.3182,0.3201,0.3202,0.3202,0.3202,0.3226,0.3227,0.3227,0,0,0,0,0,0,0,0,0,0,0,0,0,0.3143,0.3126,0.3156,0.3169,0.3171,0.3181,0.3181,0.3182,0.3201,0.3202,0.3202,0.3202,0.3226,0.3226,0.3227,0.3225,0,0,0.3229,0.323,0,0,0,0,0,0,0,0,0.3142,0.3145,0.3167,0.3169,0.317,0.3188,0.3179,0.3196,0.3201,0.319,0.3202,0.3202,0.3213,0.3215,0.3219,0.3226,0.3227,0.3229,0.323,0.323,0.323,0,0,0,0,0,0,0,0.3141,0.3144,0.3166,0.3167,0.3169,0.3174,0.3177,0.3183,0.3199,0.3191,0.3192,0.3195,0.3214,0.3218,0.322,0.3228,0.3229,0.323,0.323,0.3231,0.3237,0.3237,0,0,0,0,0,0,0.3138,0.3142,0.3165,0.3167,0.3157,0.3175,0.3178,0.3182,0.3199,0.3202,0.3195,0.3196,0.3217,0.3219,0.3221,0.3221,0.323,0.3231,0.3231,0.3237,0.3237,0.3237,0,0,0,0,0,0,0.3137,0.314,0.3164,0.3155,0.3158,0.3175,0.318,0.3183,0.3187,0.3202,0.3205,0.3196,0.3217,0.322,0.3225,0.3222,0.3231,0.3232,0.3237,0.3237,0.3237,0.322,0,0,0,0,0,0,0.3136,0.3139,0.3139,0.3155,0.3159,0.3167,0.3179,0.3183,0.3188,0.319,0.3204,0.3207,0.3218,0.3223,0.3225,0.3223,0.3232,0.3238,0.3237,0.3237,0.3221,0.3219,0.3218,0,0,0,0,0,0.3135,0.3132,0.3139,0.3141,0.3158,0.3167,0.317,0.3182,0.3188,0.3187,0.3198,0.3207,0.3222,0.3224,0.3226,0.3224,0.3238,0.3237,0.3237,0.3222,0.3219,0.3218,0,0,0,0,0,0,0.3114,0.3135,0.3142,0.3144,0.3154,0.3171,0.317,0.3179,0.3187,0.3189,0.3204,0.3207,0.321,0.3217,0.3219,0.3224,0.3231,0.3231,0.3219,0.3217,0.3215,0.3213,0.3233,0,0,0,0,0,0.311,0.3116,0.3133,0.3134,0.3138,0.3154,0.3158,0.3167,0.3178,0.3182,0.3192,0.3202,0.3209,0.3213,0.3221,0.3222,0.3226,0.3222,0.322,0.3219,0.3218,0.3221,0.322,0.3235,0.3235,0.3235,0,0,0.3102,0.3113,0.3116,0.313,0.3139,0.3144,0.3157,0.3162,0.3166,0.3182,0.3188,0.3196,0.3208,0.3212,0.3214,0.3218,0.3215,0.3218,0.3217,0.3217,0.322,0.3219,0.3218,0.3234,0.3234,0.3234,0,0,0.3089,0.3098,0.31,0.3109,0.3122,0.3133,0.3133,0.3149,0.3155,0.3161,0.3174,0.3179,0.3191,0.32,0.3205,0.3198,0.3206,0.32,0.3191,0.3193,0.3192,0.3191,0.3189,0.3188,0.3199,0.3199,0.3199,0,0.3076,0.3085,0.31,0.3105,0.3111,0.3127,0.3129,0.3137,0.3152,0.3156,0.316,0.3177,0.3186,0.3192,0.319,0.3194,0.3196,0.3198,0.3191,0.319,0.319,0.3188,0.3187,0.3198,0.3198,0.3199,0.3199,0,0.3069,0.3076,0.3076,0.3091,0.3097,0.3101,0.3116,0.3121,0.313,0.314,0.3147,0.3158,0.3169,0.3171,0.3179,0.3179,0.3181,0.3188,0.3196,0.3187,0.3186,0.3185,0.3197,0.3197,0.3198,0.3198,0,0,0.3043,0.3068,0.3067,0.3075,0.3092,0.3097,0.3102,0.3113,0.3117,0.3127,0.3132,0.3142,0.315,0.3156,0.3166,0.3168,0.3162,0.3175,0.3175,0.3172,0.3164,0.3158,0.3157,0.3168,0.3168,0.3168,0.3163,0,0.3033,0.3043,0.3057,0.3062,0.3069,0.3085,0.3089,0.31,0.311,0.3117,0.3128,0.3136,0.3144,0.3148,0.3151,0.3162,0.3161,0.3163,0.3173,0.3173,0.317,0.3157,0.3151,0.3145,0.3162,0.3162,0.3162,0,0.3022,0.3033,0.3039,0.3057,0.306,0.3064,0.3076,0.3083,0.3096,0.3103,0.3111,0.3122,0.3129,0.3136,0.3145,0.3146,0.3152,0.3158,0.3158,0.3159,0.3167,0.3158,0.3143,0.3142,0.3161,0.3161,0.3161,0,0.3003,0.3019,0.3025,0.3031,0.3052,0.3054,0.3063,0.3076,0.3083,0.3093,0.3098,0.3109,0.3115,0.3123,0.3137,0.3141,0.3145,0.3153,0.3152,0.3151,0.3151,0.3151,0.3138,0.3154,0.3154,0.3154,0.3155,0,0.2991,0.2994,0.3017,0.3021,0.3025,0.3042,0.3046,0.3056,0.3068,0.3074,0.3089,0.3094,0.3112,0.312,0.3131,0.3137,0.314,0.3146,0.3149,0.3145,0.3144,0.3148,0.3149,0.3154,0.3154,0.3154,0.3154,0,0.297,0.2985,0.2993,0.3013,0.3018,0.302,0.3037,0.3042,0.3053,0.3061,0.3064,0.3081,0.3091,0.3106,0.312,0.3128,0.3133,0.3137,0.3129,0.313,0.3128,0.3128,0.3117,0.3117,0.3133,0.3133,0.3133,0,0.2961,0.2964,0.2985,0.299,0.2999,0.3007,0.3014,0.3031,0.3038,0.3054,0.3056,0.3068,0.3078,0.3093,0.3107,0.3119,0.3124,0.3119,0.3125,0.3122,0.3124,0.3124,0.3125,0.3117,0.3117,0.3117,0.3117,0,0.2944,0.2952,0.2961,0.2974,0.2982,0.2993,0.3004,0.3008,0.3028,0.3034,0.3045,0.3053,0.3069,0.308,0.3094,0.3103,0.3113,0.3115,0.3115,0.3111,0.3106,0.3109,0.3125,0.3115,0.3115,0.3115,0.3115,0.3115,0.2929,0.2933,0.2948,0.2959,0.297,0.2981,0.2986,0.2999,0.3008,0.3023,0.3032,0.3043,0.3057,0.3077,0.3086,0.3094,0.3099,0.3099,0.3099,0.3099,0.3098,0.3105,0.3097,0.3097,0.3097,0.3097,0.3097,0,0.2913,0.2924,0.2934,0.295,0.2959,0.2969,0.2982,0.2989,0.2998,0.3011,0.3021,0.3034,0.3046,0.3062,0.3074,0.3078,0.3084,0.3081,0.3081,0.3083,0.3093,0.3092,0.3077,0.3077,0.3077,0.3077,0.3077,0.3077,0.2906,0.2913,0.2923,0.2937,0.2948,0.2959,0.2966,0.2976,0.2987,0.3001,0.3011,0.3022,0.3036,0.305,0.3062,0.3066,0.307,0.3066,0.3072,0.3081,0.3082,0.3084,0.3083,0.3067,0.3067,0.3062,0.3062,0.3062]}]]